DELTA 1 DEB, 13539

Orbit data source: Space-Track

DELTA 1 DEB, 13539 is space debris in LEO originally from a launch on Thu, 29 Jul 1976 UTC launched from the Air Force Western Test Range (AFWTR). Debris objects in space refer to the collection of defunct objects orbiting the Earth. Examples of debris include non-operational satellites, rocket bodies, and fragments generated from explosions, collisions, or faulty payload assembly.

Loading next visibility...
Identifier
13539, 1976-077EM
Orbit
LEO
Country
Flag of USUS
Related business
Manufacturer
Unknown
Mission
Spacecraft
Bus & Motor
Unknown
Mass
Unknown
Launch date (UTC)
1976-07-29 (49 years ago)
Launch vehicle
Unknown
Launch site
Air Force Western Test Range (AFWTR)
Object type
Payload
Rocket body
Debris
Shape & HBR
Unknown shape, 1.1 m
Radar Cross Section
Small (<0.1 m²)

Expand to show TLE details & history
Last TLE update: 3 days ago

TLE from 3 days ago
0 DELTA 1 DEB
1 13539U 76077EM  25299.24279686 -.00000321  00000-0 -43787-2 0  9998
2 13539 101.8913  42.0010 0408560  82.1281 337.9840 11.65392085926504
Epoch: 2025-10-26T05:49Z
TLE epoch observation values (Epoch: 2025-10-26T05:49:37.648Z)
Latitude
56.42819°
Longitude
-98.67206°
Altitude
1,539.547 km
Speed
7.234 km/s
True Right ascension
01h 34m 23s
True Declination
56° 17' 07"
Sunlit
Object was in full shadow at epoch
Visualization orbit readout
Latitude
Unknown
Longitude
Unknown
Altitude
Unknown
Speed
Unknown
Apparent Right ascension
Unknown
Apparent Declination
Unknown
Sunlit
N/A
Visualization observer readout
Local Sidereal Time
19:27:05
Azimuth
Unknown
Elevation
Unknown
Doppler factor
Unknown
Orbital elements
Apogee altitude
2,172.94 km
Perigee altitude
1,501.641 km
Semi-major axis
8,215.428 km
Eccentricity
0.04086
Inclination
101.8913°
RAAN
42.001°
Arg. of periapsis
82.1281°
True anomaly
336.14225°
Mean anomaly
337.984°
Eccentric anomaly
337.07206°
Mean motion
2.91473 °/min
Orbital period
123.51 mins
BSTAR
-0.0043787
Loading maneuver chart data...
Computing Atmospheric mass density...
Loading historical data...
Loading historical data...
Loading historical data...
Loading historical data...
Loading historical data...
Loading historical data...
Loading historical data...

Documentation

Showing up to 5 results
|